Location: Pian di Sc�
(43.6333°N, 11.5500°E)
Time: 17:38:26
(UTC+00:00)

Cosmos 1340 Rocket - Pass Details

Date: 07 August 2020
Orbit: 529 x 558 km, 81.2° (Epoch: 18 September)

Event Time Altitude Azimuth Distance (km) Brightness Sun altitude
Exits shadow 01:55:13 36° 155° (SSE) 874 3.6 -20.3°
Maximum altitude 01:56:34 56° 97° (E) 652 3.3 -20.1°
Drops below altitude 10° 02:00:28 10° 19° (NNE) 1,810 6.5 -19.7°
Sets 02:02:39 0° 15° (NNE) 2,702 7.5 -19.4°
